TimeBST,TemperatureF,Dew PointF,Humidity,Sea Level PressureIn,VisibilityMPH,Wind Direction,Wind SpeedMPH,Gust SpeedMPH,PrecipitationIn,Events,Conditions,WindDirDegrees,DateUTC
12:50 AM,47,45,88,30.09,19,WNW,2.3,,,,Mostly Cloudy,290,2012-10-06 23:50:00
3:50 AM,47,45,89,30.12,19,West,3.5,,,,Scattered Clouds,260,2012-10-07 02:50:00
6:50 AM,44,41,83,30.15,22,NW,2.3,,,,,310,2012-10-07 05:50:00
9:50 AM,52,45,70,30.21,16,SE,1.2,,,,Partly Cloudy,140,2012-10-07 08:50:00
9:50 AM,51.8,46.4,82,30.21,6.2,Calm,Calm,-,N/A,,Partly Cloudy,0,2012-10-07 08:50:00
10:20 AM,53.6,46.4,77,30.21,6.2,Variable,2.3,-,N/A,,Partly Cloudy,0,2012-10-07 09:20:00
10:50 AM,55.4,46.4,72,30.21,6.2,NNW,5.8,-,N/A,,Partly Cloudy,330,2012-10-07 09:50:00
11:20 AM,53.6,44.6,72,30.21,6.2,North,4.6,-,N/A,,Partly Cloudy,10,2012-10-07 10:20:00
12:20 PM,55.4,44.6,67,30.21,6.2,NNE,5.8,-,N/A,,Partly Cloudy,20,2012-10-07 11:20:00
12:50 PM,55,42,50,30.22,19,North,5.8,,,,Mostly Cloudy,0,2012-10-07 11:50:00
12:50 PM,55.4,46.4,72,30.21,6.2,NNW,4.6,-,N/A,,Partly Cloudy,340,2012-10-07 11:50:00
1:20 PM,55.4,44.6,67,30.21,6.2,Variable,2.3,-,N/A,,Partly Cloudy,0,2012-10-07 12:20:00
1:50 PM,57.2,44.6,63,30.21,6.2,Calm,Calm,-,N/A,,Partly Cloudy,0,2012-10-07 12:50:00
2:20 PM,55.4,42.8,63,30.21,6.2,Calm,Calm,-,N/A,,Partly Cloudy,0,2012-10-07 13:20:00
2:50 PM,55.4,46.4,72,30.18,6.2,Variable,3.5,-,N/A,,Partly Cloudy,0,2012-10-07 13:50:00
3:20 PM,55.4,46.4,72,30.18,6.2,Variable,3.5,-,N/A,,Partly Cloudy,0,2012-10-07 14:20:00
3:50 PM,54,42,53,30.20,25,NNW,3.5,,,,Scattered Clouds,330,2012-10-07 14:50:00
3:50 PM,55.4,48.2,77,30.18,6.2,Variable,3.5,-,N/A,,Partly Cloudy,0,2012-10-07 14:50:00
6:50 PM,48,43,76,30.19,19,NNW,1.2,,,,Scattered Clouds,330,2012-10-07 17:50:00
9:50 PM,42,40,91,30.19,6,SSW,1.2,,,,Mostly Cloudy,200,2012-10-07 20:50:00